TimeEST,TemperatureF,Dew PointF,Humidity,Sea Level PressureIn,VisibilityMPH,Wind Direction,Wind SpeedMPH,Gust SpeedMPH,PrecipitationIn,Events,Conditions,WindDirDegrees,DateUTC
12:15 AM,44.6,37.4,76,29.98,10.0,NNW,13.8,20.7,N/A,,Clear,340,2013-02-16 05:15:00
12:35 AM,44.6,35.6,71,29.98,10.0,NNW,13.8,21.9,N/A,,Clear,330,2013-02-16 05:35:00
12:55 AM,42.8,35.6,76,29.98,10.0,NNW,11.5,21.9,N/A,,Clear,340,2013-02-16 05:55:00
1:15 AM,42.8,35.6,76,29.98,10.0,North,8.1,18.4,N/A,,Clear,350,2013-02-16 06:15:00
1:37 AM,42.8,33.8,70,29.98,10.0,NNW,8.1,17.3,N/A,,Clear,340,2013-02-16 06:37:00
1:55 AM,42.8,33.8,70,29.98,10.0,North,8.1,-,N/A,,Clear,350,2013-02-16 06:55:00
2:17 AM,41.0,33.8,76,29.97,10.0,NNW,8.1,-,N/A,,Clear,340,2013-02-16 07:17:00
2:35 AM,41.0,33.8,76,29.97,10.0,NNW,8.1,-,N/A,,Clear,340,2013-02-16 07:35:00
2:55 AM,41.0,33.8,76,29.97,10.0,NNW,6.9,-,N/A,,Clear,340,2013-02-16 07:55:00
3:15 AM,39.2,33.8,81,29.95,10.0,NNW,4.6,-,N/A,,Clear,340,2013-02-16 08:15:00
3:35 AM,39.2,33.8,81,29.95,10.0,North,8.1,-,N/A,,Clear,350,2013-02-16 08:35:00
3:55 AM,39.2,35.6,87,29.95,10.0,NNW,8.1,-,N/A,,Clear,330,2013-02-16 08:55:00
4:15 AM,39.2,35.6,87,29.95,10.0,NNW,6.9,-,N/A,,Clear,330,2013-02-16 09:15:00
4:35 AM,39.2,35.6,87,29.95,10.0,NNW,5.8,-,N/A,,Clear,330,2013-02-16 09:35:00
4:55 AM,39.2,35.6,87,29.94,10.0,NNW,6.9,-,N/A,,Clear,340,2013-02-16 09:55:00
5:15 AM,39.2,35.6,87,29.93,10.0,NNW,6.9,-,N/A,,Clear,340,2013-02-16 10:15:00
5:35 AM,39.2,35.6,87,29.94,10.0,NNW,4.6,-,N/A,,Scattered Clouds,330,2013-02-16 10:35:00
6:15 AM,39.2,35.6,87,29.92,10.0,North,6.9,-,N/A,,Clear,350,2013-02-16 11:15:00
6:55 AM,39.2,35.6,87,29.92,10.0,North,4.6,-,N/A,,Clear,350,2013-02-16 11:55:00
7:15 AM,39.2,35.6,87,29.92,10.0,NNW,4.6,-,N/A,,Scattered Clouds,340,2013-02-16 12:15:00
7:55 AM,41.0,35.6,81,29.93,10.0,NNW,10.4,-,N/A,,Overcast,330,2013-02-16 12:55:00
8:35 AM,41.0,35.6,81,29.93,10.0,North,8.1,-,N/A,,Overcast,350,2013-02-16 13:35:00
8:55 AM,41.0,35.6,81,29.93,10.0,North,15.0,-,N/A,,Overcast,350,2013-02-16 13:55:00
9:15 AM,42.8,35.6,76,29.92,10.0,NNW,10.4,-,N/A,,Overcast,340,2013-02-16 14:15:00
9:35 AM,42.8,35.6,76,29.92,10.0,NNW,11.5,18.4,N/A,,Overcast,340,2013-02-16 14:35:00
9:55 AM,42.8,35.6,76,29.91,10.0,North,10.4,18.4,N/A,,Overcast,350,2013-02-16 14:55:00
10:17 AM,42.8,33.8,70,29.91,10.0,North,9.2,18.4,N/A,,Overcast,350,2013-02-16 15:17:00
10:35 AM,41.0,33.8,76,29.91,10.0,North,11.5,18.4,N/A,,Overcast,350,2013-02-16 15:35:00
10:55 AM,39.2,33.8,81,29.90,10.0,North,9.2,19.6,N/A,,Overcast,10,2013-02-16 15:55:00
11:15 AM,39.2,33.8,81,29.90,10.0,North,11.5,17.3,N/A,,Overcast,360,2013-02-16 16:15:00
11:35 AM,39.2,33.8,81,29.90,10.0,North,8.1,16.1,N/A,,Overcast,360,2013-02-16 16:35:00
11:57 AM,39.2,33.8,81,29.89,10.0,North,8.1,-,N/A,,Light Drizzle,350,2013-02-16 16:57:00
12:15 PM,39.2,33.8,81,29.89,10.0,North,11.5,-,N/A,Rain,Light Rain,360,2013-02-16 17:15:00
12:35 PM,39.2,33.8,81,29.88,10.0,North,8.1,-,N/A,,Light Drizzle,350,2013-02-16 17:35:00
12:57 PM,37.4,33.8,87,29.88,7.0,North,6.9,-,N/A,Rain,Rain,350,2013-02-16 17:57:00
1:15 PM,37.4,35.6,93,29.87,7.0,North,5.8,-,N/A,Rain,Light Rain,350,2013-02-16 18:15:00
1:35 PM,37.4,33.8,87,29.85,5.0,North,4.6,-,N/A,Rain,Light Rain,10,2013-02-16 18:35:00
1:55 PM,37.4,33.8,87,29.85,7.0,North,6.9,-,N/A,Rain,Light Rain,10,2013-02-16 18:55:00
2:15 PM,37.4,35.6,93,29.84,7.0,North,5.8,-,0.01,Rain,Light Rain,360,2013-02-16 19:15:00
2:35 PM,37.4,33.8,87,29.84,5.0,North,5.8,-,0.01,Rain,Light Rain,360,2013-02-16 19:35:00
2:55 PM,37.4,33.8,87,29.82,2.5,North,8.1,-,0.03,Rain,Light Rain,10,2013-02-16 19:55:00
3:15 PM,35.6,33.8,93,29.81,4.0,North,8.1,-,0.02,Rain,Light Rain,10,2013-02-16 20:15:00
3:35 PM,35.6,33.8,93,29.81,4.0,North,5.8,-,0.03,Snow,Snow,360,2013-02-16 20:35:00
3:55 PM,35.6,33.8,93,29.80,3.0,North,6.9,-,0.05,Rain,Light Rain,350,2013-02-16 20:55:00
4:15 PM,35.6,33.8,93,29.78,4.0,North,10.4,16.1,N/A,Rain,Light Rain,360,2013-02-16 21:15:00
4:35 PM,35.6,33.8,93,29.79,5.0,North,12.7,17.3,0.01,Rain,Light Rain,360,2013-02-16 21:35:00
4:55 PM,35.6,33.8,93,29.79,7.0,North,6.9,16.1,0.02,Snow,Snow,360,2013-02-16 21:55:00
5:15 PM,35.6,33.8,93,29.78,5.0,NNE,9.2,-,0.01,Snow,Light Snow,20,2013-02-16 22:15:00
5:35 PM,35.6,33.8,93,29.79,4.0,North,6.9,-,0.03,Snow,Light Snow,10,2013-02-16 22:35:00
5:55 PM,35.6,33.8,93,29.79,5.0,North,8.1,-,0.05,Snow,Light Snow,10,2013-02-16 22:55:00
6:15 PM,35.6,33.8,93,29.79,3.0,North,4.6,-,0.02,Snow,Light Snow,350,2013-02-16 23:15:00
6:35 PM,35.6,33.8,93,29.79,2.0,North,6.9,-,0.05,Snow,Light Snow,10,2013-02-16 23:35:00
6:55 PM,33.8,32.0,93,29.78,1.2,North,10.4,-,0.08,Snow,Light Snow,360,2013-02-16 23:55:00
7:15 PM,35.6,33.8,93,29.79,2.5,North,10.4,-,0.02,Snow,Light Snow,360,2013-02-17 00:15:00
7:35 PM,35.6,32.0,87,29.78,2.0,North,12.7,19.6,0.03,Snow,Light Snow,360,2013-02-17 00:35:00
7:55 PM,33.8,32.0,93,29.79,2.0,North,11.5,20.7,0.04,Snow,Light Snow,360,2013-02-17 00:55:00
8:15 PM,33.8,32.0,93,29.78,1.5,North,17.3,24.2,0.01,Snow,Light Snow,360,2013-02-17 01:15:00
8:35 PM,33.8,32.0,93,29.79,1.8,North,16.1,21.9,0.01,Snow,Light Snow,360,2013-02-17 01:35:00
8:55 PM,33.8,32.0,93,29.78,1.5,North,11.5,20.7,0.02,Snow,Light Snow,350,2013-02-17 01:55:00
9:15 PM,33.8,30.2,87,29.78,1.8,North,13.8,21.9,N/A,Snow,Light Snow,360,2013-02-17 02:15:00
9:35 PM,33.8,30.2,87,29.79,1.0,North,15.0,24.2,0.01,Snow,Light Snow,360,2013-02-17 02:35:00
9:55 PM,33.8,30.2,87,29.78,2.0,North,13.8,20.7,0.01,Snow,Light Snow,360,2013-02-17 02:55:00
10:15 PM,33.8,30.2,87,29.78,2.5,North,15.0,24.2,N/A,Snow,Light Snow,350,2013-02-17 03:15:00
10:55 PM,33.8,28.4,81,29.77,7.0,North,10.4,20.7,N/A,Snow,Light Snow,360,2013-02-17 03:55:00
11:15 PM,33.8,28.4,81,29.76,5.0,North,11.5,24.2,N/A,Snow,Light Snow,350,2013-02-17 04:15:00
11:35 PM,33.8,26.6,75,29.76,10.0,North,16.1,27.6,N/A,Snow,Light Snow,360,2013-02-17 04:35:00
11:55 PM,33.8,24.8,70,29.76,10.0,North,11.5,21.9,N/A,,Overcast,350,2013-02-17 04:55:00